Location: Gro�sch�nbrunn
(49.5760°N, 11.8868°E)
Time: 03:15:31
(UTC+00:00)

Cosmos 1674 - Pass Details

Date: 18 September 2020
Orbit: 495 x 517 km, 82.5° (Epoch: 18 October)

Event Time Altitude Azimuth Distance (km) Brightness Sun altitude
Rises 19:02:39 0° 352° (N) 2,653 6.8 -17.2°
Reaches altitude 10° 19:04:49 10° 356° (N) 1,761 5.8 -17.5°
Maximum altitude 19:08:39 64° 78° (ENE) 581 2.6 -18.1°
Enters shadow 19:09:39 44° 139° (SE) 723 3.0 -18.2°
